Zurück zum Katalog

CZ-6A DEB

AktivPO
NORAD 63923·DEBRIS·🇨🇳 China

Gestartet May 11, 2025 von Taiyuan Satellite Launch Center

Loading…

Nächste Überflüge (nächste 24 Stunden)

TLE

AktuellSource: Space-Track

Epoche: Sep 14, 2026, 23:09 UTC

1 63923U 25096F   26257.96480359  .00000195  00000-0  71575-4 0  9995
2 63923  85.9957 142.3850 0013503 129.0446 231.1949 14.27308209 69953

Verfolge CZ-6A DEB in Echtzeit mit AllMySat

Download on the App Store